User: anonymous   Login
Location: Caltech
(34.1382°N, 118.1253°W)
Time: 13:19:20
(UTC-07:00)
Language:

Cosmos 1125 Rocket - Orbit

View from above orbital plane
View from above orbital plane
View from above satellite
View from above satellite

Ground track
Ground track

The orbit data is extracted from the following two-line orbital elements,

1 11511U 79078B   17114.89807208 +.00000032 +00000-0 +19828-4 0  9993
2 11511 074.0380 053.2451 0016491 307.2835 052.6814 14.36763938970701
Epoch (UTC): 24 April 2017 21:33:13
Eccentricity: 0.0016491
inclination: 74.0380°
perigee height: 757 km
apogee height: 781 km
right ascension of ascending node: 53.2451°
argument of perigee: 307.2835°
revolutions per day: 14.36763938
mean anomaly at epoch: 52.6814°
orbit number at epoch: 97070

The dashed part of the orbit path shows where the satellite is in the earth's shadow,  

DLR